"Pseudo-MPEC" for P10OSOj

Created 2019 Jun 16 12:07:51 UT using Find_Orb

Click here for an explanation of pseudo-MPECs

 
 Astrometry: 
     P10OSOj  C2019 06 09_(kTa,.?FIyWoE%js2AstrometryBU`S?@redacted;rI!c5aEZoF51
     P10OSOj  C2019 06 09-fXg'%click+8uT]Therex1ft@MMfor_GEc#cexplanationRdbfF51
     P10OSOj  C2019 06 093I,kOsLUXd*f_g%9-,@F.fc1);Ok'b;4.jaZy@y^`Uw%B)c^)q$mF51

Station data:
(F51) Pan-STARRS 1, Haleakala  (N20.707235 W156.255910)  US/Hawaii.
   Observers N. Primak, A. Schultz, S. Watters, J. Thiel, T. Goggia. Measurer
   PS1 Science Consortium. 1.8-m Ritchey-Chrétien + CCD.

Orbital elements:  P10OSOj
   Perihelion 2019 Dec 7.148356 +/- 325 TT =  3:33:38 (JD 2458824.648356)
Epoch 2019 Jun 10.0 TT = JDT 2458644.5   Earth MOID: 0.5797   AutoNEOCP
M 291.21337432 +/- 70               (J2000 ecliptic)
n   0.38183321 +/- 0.233            Peri.  204.04307 +/- 70
a   1.88171384 +/- 0.766            Node   136.87442 +/- 50
e   0.1605412 +/- 0.255             Incl.   22.63122 +/- 31
P   2.58/942.80d           H 19.8   G  0.15   U 11.8  SR
q 1.57962117 +/- 0.995    Q 2.18380652 +/- 34.4
From 3 observations 2019 June 9 (36.5 min); mean residual 0".03
Residuals in arcseconds: 
190609 F51  .00   .03+    190609 F51  .00   .07-    190609 F51  .00   .03+    

Ephemerides (geocentric):
Date (UTC) HH   RA              Dec         delta   r     elong  mag " sig PA
---- -- -- --  -------------   -----------  ------ ------ -----  --- ---- ---
2019 06 16 12  16 55 19.825   +18 27 30.76  .92357 1.8045 137.0 22.0 9903   3
2019 06 16 13  16 55 16.904   +18 27 06.21  .92353 1.8045 137.0 22.0 173'   3
2019 06 16 14  16 55 13.984   +18 26 41.59  .92348 1.8044 136.9 22.0 182'   4
2019 06 16 15  16 55 11.065   +18 26 16.91  .92344 1.8043 136.9 22.0 192'   4
2019 06 16 16  16 55 08.147   +18 25 52.16  .92340 1.8042 136.9 22.0 203'   5
2019 06 16 17  16 55 05.231   +18 25 27.35  .92336 1.8041 136.9 22.0 215'   5
2019 06 16 18  16 55 02.315   +18 25 02.47  .92332 1.8040 136.9 22.0 228'   5
2019 06 16 19  16 54 59.400   +18 24 37.53  .92328 1.8040 136.9 22.0 242'   6
2019 06 16 20  16 54 56.487   +18 24 12.52  .92323 1.8039 136.9 22.0 259'   6
2019 06 16 21  16 54 53.575   +18 23 47.45  .92319 1.8038 136.9 22.0 277'   7
2019 06 16 22  16 54 50.663   +18 23 22.31  .92315 1.8037 136.9 22.0 297'   8
2019 06 16 23  16 54 47.753   +18 22 57.11  .92311 1.8036 136.9 22.0 320'   8
2019 06 17 00  16 54 44.844   +18 22 31.84  .92307 1.8035 136.9 22.0 345'   9
2019 06 17 01  16 54 41.936   +18 22 06.51  .92303 1.8034 136.9 22.0 374'  10
2019 06 17 02  16 54 39.029   +18 21 41.11  .92299 1.8034 136.9 22.0 405'  10
2019 06 17 03  16 54 36.124   +18 21 15.65  .92296 1.8033 136.8 22.0 440'  11
2019 06 17 04  16 54 33.219   +18 20 50.12  .92292 1.8032 136.8 22.0 477'  12
2019 06 17 05  16 54 30.316   +18 20 24.53  .92288 1.8031 136.8 22.0 516'  13
2019 06 17 06  16 54 27.414   +18 19 58.87  .92284 1.8030 136.8 22.0 557'  13
2019 06 17 07  16 54 24.513   +18 19 33.15  .92280 1.8029 136.8 22.0 598'  14
2019 06 17 08  16 54 21.613   +18 19 07.37  .92276 1.8029 136.8 22.0 639'  14
2019 06 17 09  16 54 18.714   +18 18 41.52  .92273 1.8028 136.8 22.0 678'  14
2019 06 17 10  16 54 15.817   +18 18 15.60  .92269 1.8027 136.8 22.0 715'  14
2019 06 17 11  16 54 12.920   +18 17 49.62  .92265 1.8026 136.8 22.0 750'  14
2019 06 17 12  16 54 10.025   +18 17 23.58  .92262 1.8025 136.8 22.0 781'  14
2019 06 17 13  16 54 07.131   +18 16 57.47  .92258 1.8024 136.8 22.0 809'  14
2019 06 17 14  16 54 04.239   +18 16 31.30  .92254 1.8023 136.7 22.0 834'  14
2019 06 17 15  16 54 01.347   +18 16 05.06  .92251 1.8023 136.7 22.0 857'  14
2019 06 17 16  16 53 58.457   +18 15 38.76  .92247 1.8022 136.7 22.0 878'  13
2019 06 17 17  16 53 55.568   +18 15 12.39  .92244 1.8021 136.7 22.0 897'  12
2019 06 17 18  16 53 52.680   +18 14 45.96  .92240 1.8020 136.7 22.0 918'  10
2019 06 17 19  16 53 49.794   +18 14 19.47  .92237 1.8019 136.7 22.0 949'   6
2019 06 17 20  16 53 46.909   +18 13 52.91  .92233 1.8018 136.7 22.0  17d 179
2019 06 17 21  16 53 44.025   +18 13 26.28  .92230 1.8018 136.7 22.0  19d 174
2019 06 17 22  16 53 41.142   +18 12 59.60  .92226 1.8017 136.7 22.0  20d 173
2019 06 17 23  16 53 38.261   +18 12 32.84  .92223 1.8016 136.7 22.0  21d 174
2019 06 18 00  16 53 35.381   +18 12 06.03  .92220 1.8015 136.7 22.0  22d 175
2019 06 18 01  16 53 32.502   +18 11 39.15  .92216 1.8014 136.6 22.0  22d 175
2019 06 18 02  16 53 29.625   +18 11 12.20  .92213 1.8013 136.6 22.0  22d 176
2019 06 18 03  16 53 26.748   +18 10 45.19  .92210 1.8012 136.6 22.0  23d 177
2019 06 18 04  16 53 23.874   +18 10 18.12  .92207 1.8012 136.6 22.0  23d 177
2019 06 18 05  16 53 21.000   +18 09 50.98  .92203 1.8011 136.6 22.0  23d 177
2019 06 18 06  16 53 18.128   +18 09 23.78  .92200 1.8010 136.6 22.0  23d 178
2019 06 18 07  16 53 15.257   +18 08 56.51  .92197 1.8009 136.6 22.0  23d 178
2019 06 18 08  16 53 12.388   +18 08 29.18  .92194 1.8008 136.6 22.0  23d 178
2019 06 18 09  16 53 09.520   +18 08 01.79  .92191 1.8007 136.6 22.0  23d 178
2019 06 18 10  16 53 06.653   +18 07 34.33  .92188 1.8007 136.6 22.0  23d 178
2019 06 18 11  16 53 03.787   +18 07 06.81  .92185 1.8006 136.6 22.0  24d 179